Weather History for KHUT - February, 2013

Change the Weather History Date:

Wednesday, February 13, 2013

  Actual Average (KICT) Record (KICT)
Temperature  
Mean Temperature 40 °F 36 °F  
Max Temperature 57 °F 48 °F 77 °F (1921)
Min Temperature 23 °F 26 °F -18 °F (1905)
Degree Days  
Heating Degree Days 25 28  
Month to date heating degree days 389  
Since 1 July heating degree days 3249  
Cooling Degree Days 0 0  
Month to date cooling degree days 0  
Year to date cooling degree days 0  
Moisture  
Dew Point 20 °F    
Average Humidity 52    
Maximum Humidity 92    
Minimum Humidity 19    
Precipitation  
Precipitation 0.00 in 0.04 in 0.81 in (1908)
Month to date precipitation 0.50  
Year to date precipitation 1.33  
Snow  
Snow 0.00 in 0.10 in 4.10 in (1914)
Month to date snowfall 1.8  
Since 1 July snowfall 11.0  
Snow Depth -    
Sea Level Pressure  
Sea Level Pressure 29.94 in    
Wind  
Wind Speed 9 mph (West)    
Max Wind Speed 18 mph    
Max Gust Speed 25 mph    
Visibility 10 miles    
Events      
T = Trace of Precipitation, MM = Missing Value Source: NWS Daily Summary

Daily Weather History Graph

Daily Weather History Graph

Search for Another Location

Airport or City:

Trip Planner

Search our weather history database for the weather conditions in past years. The results will help you decide how hot, cold, wet, or windy it might be!

Date:

Astronomy

Feb. 13, 2013 Rise Set
Actual Time 7:23 AM CST 6:08 PM CST
Civil Twilight 6:56 AM CST 6:35 PM CST
Nautical Twilight 6:25 AM CST 7:06 PM CST
Astronomical Twilight 5:54 AM CST 7:36 PM CST
Moon 8:58 AM CST (2/13) 10:07 PM CST (2/13)
Length of Visible Light 11h 38m
Length of Day
10h 44m
Waxing Crescent, 14% of the Moon is Illuminated
Feb 13
Waxing Crescent
Feb 17
First Quarter
Feb 25
Full
Mar 4
Last Quarter
Mar 11
New

Hourly Weather History & Observations

Time (CST) Temp. Windchill Dew Point Humidity Pressure Visibility Wind Dir Wind Speed Gust Speed Precip Events Conditions
12:52 AM 28.0 °F 20.8 °F 25.0 °F 88% 30.00 in 10.0 mi West 6.9 mph - N/A   Clear
1:52 AM 27.0 °F 19.5 °F 24.1 °F 89% 30.00 in 10.0 mi WNW 6.9 mph - N/A   Clear
2:52 AM 23.0 °F 14.7 °F 21.0 °F 92% 29.99 in 9.0 mi NW 6.9 mph - N/A   Clear
3:52 AM 25.0 °F 17.1 °F 21.0 °F 85% 29.99 in 10.0 mi NW 6.9 mph - N/A   Clear
4:52 AM 25.0 °F 14.2 °F 19.0 °F 78% 29.99 in 10.0 mi NW 11.5 mph - N/A   Clear
5:52 AM 24.1 °F 17.0 °F 18.0 °F 77% 29.99 in 10.0 mi WNW 5.8 mph - N/A   Clear
6:52 AM 23.0 °F 17.0 °F 17.1 °F 78% 29.99 in 10.0 mi West 4.6 mph - N/A   Clear
7:52 AM 25.0 °F 17.1 °F 18.0 °F 75% 29.99 in 10.0 mi West 6.9 mph - N/A   Clear
8:52 AM 30.0 °F 20.5 °F 21.0 °F 69% 30.00 in 10.0 mi West 11.5 mph - N/A   Clear
9:52 AM 37.9 °F 28.9 °F 23.0 °F 55% 29.99 in 10.0 mi WNW 16.1 mph - N/A   Clear
10:52 AM 43.0 °F 37.2 °F 23.0 °F 45% 29.99 in 10.0 mi WNW 10.4 mph - N/A   Clear
11:52 AM 51.1 °F - 21.0 °F 31% 29.96 in 10.0 mi WNW 15.0 mph - N/A   Clear
12:52 PM 54.0 °F - 19.0 °F 25% 29.94 in 10.0 mi West 12.7 mph 19.6 mph N/A   Clear
1:52 PM 55.9 °F - 18.0 °F 23% 29.91 in 10.0 mi West 18.4 mph 23.0 mph N/A   Clear
2:52 PM 57.0 °F - 19.0 °F 23% 29.89 in 10.0 mi West 17.3 mph 25.3 mph N/A   Clear
3:52 PM 57.9 °F - 19.9 °F 23% 29.87 in 10.0 mi West 17.3 mph 23.0 mph N/A   Clear
4:52 PM 57.9 °F - 16.0 °F 19% 29.87 in 10.0 mi West 15.0 mph 23.0 mph N/A   Clear
5:52 PM 54.0 °F - 16.0 °F 22% 29.87 in 10.0 mi West 12.7 mph - N/A   Clear
6:52 PM 50.0 °F - 17.1 °F 27% 29.88 in 10.0 mi WSW 5.8 mph - N/A   Clear
7:52 PM 48.0 °F - 16.0 °F 28% 29.89 in 10.0 mi WSW 8.1 mph - N/A   Clear
8:52 PM 45.0 °F 39.7 °F 21.9 °F 40% 29.90 in 10.0 mi West 10.4 mph - N/A   Clear
9:52 PM 44.1 °F 38.6 °F 21.9 °F 42% 29.90 in 10.0 mi WSW 10.4 mph 17.3 mph N/A   Clear
10:52 PM 39.0 °F 34.0 °F 23.0 °F 53% 29.91 in 10.0 mi West 6.9 mph - N/A   Clear
11:52 PM 35.1 °F 29.3 °F 21.9 °F 59% 29.92 in 10.0 mi WNW 6.9 mph - N/A   Clear